Tracking 28915 objects as of 30-May-2024
HD Live streaming from Space Station
objects crossing your sky now

AHMAT-1

Track AHMAT-1 now!
10-day predictions
AHMAT-1 is classified as:


NORAD ID: 57208
Int'l Code: 2023-091AU
Perigee: 532.5 km
Apogee: 550.6 km
Inclination: 97.6 °
Period: 95.3 minutes
Semi major axis: 6912 km
RCS: Unknown
Launch date: June 27, 2023
Source: (TBD)
Launch site: VOSTOCHNY COSMODROME (VOSTO)

Uplink (MHz):
Downlink (MHz): 437.050
Beacon (MHz):
Mode: 1145baudAFSK
Call sign: RS41S
Status: Unknown


Uplink (MHz):
Downlink (MHz): 401.320
Beacon (MHz):
Mode: 2k4 GMSK_USP
Call sign: SC2213
Status: Active


Uplink (MHz):
Downlink (MHz): 436.260
Beacon (MHz):
Mode: LoRa
Call sign: RS52SD
Status: Unknown

Your satellite tracking list
Your tracking list is empty




NASA's NSSDC Master Catalog

Two Line Element Set (TLE):
1 57208U 23091AU  24151.14499792  .00009015  00000-0  54873-3 0  9990
2 57208  97.6150 204.5416 0013098 160.9037 199.2686 15.10576166 50847
Source of the keplerian elements: AFSPC